EW2832 Weather Reports


time (UTC)temp
C
wind
direction
speed
KPH
gust
KPH
rain 1hr
cm
rain 24hr
cm
rain mn
cm
humidity
%
barometer
mb
20260510190458 14 150 22.5 24.1 0.00 0.00 0.00 32 1018.8
20260510185458 14 181 24.1 27.4 0.00 0.00 0.00 32 1018.8
20260510184957 14 181 24.1 27.4 0.00 0.00 0.00 31 1018.7
20260510184457 14 181 24.1 25.7 0.00 0.00 0.00 33 1018.6
20260510183958 13 181 24.1 24.1 0.00 0.00 0.00 35 1018.6
20260510183458 13 181 22.5 24.1 0.00 0.00 0.00 32 1018.6
20260510182957 14 181 22.5 25.7 0.00 0.00 0.00 33 1018.4
20260510182458 14 181 22.5 25.7 0.00 0.00 0.00 34 1018.3
20260510181959 13 181 22.5 25.7 0.00 0.00 0.00 35 1018.3
20260510181459 13 181 22.5 25.7 0.00 0.00 0.00 35 1018.1
20260510180958 13 181 24.1 25.7 0.00 0.00 0.00 35 1018.1
20260510180458 13 181 25.7 27.4 0.00 0.00 0.00 34 1018.2
20260510175958 13 183 25.7 29.0 0.00 0.00 0.00 34 1018.2
20260510175500 13 184 27.4 29.0 0.00 0.00 0.00 35 1018.1
20260510174958 13 182 25.7 27.4 0.00 0.00 0.00 36 1018.0
20260510174459 13 181 25.7 27.4 0.00 0.00 0.00 33 1017.8
20260510173457 13 181 22.5 25.7 0.00 0.00 0.00 34 1018.1
20260510172958 13 181 20.9 24.1 0.00 0.00 0.00 34 1018.0
20260510171958 12 181 22.5 24.1 0.00 0.00 0.00 33 1018.1
20260510170958 12 181 22.5 24.1 0.00 0.00 0.00 30 1018.1
20260510170458 13 181 22.5 22.5 0.00 0.00 0.00 36 1018.2
20260510165457 13 182 20.9 24.1 0.00 0.00 0.00 35 1018.3
20260510164958 12 181 20.9 24.1 0.00 0.00 0.00 35 1018.3
20260510164458 12 181 20.9 24.1 0.00 0.00 0.00 35 1018.3
20260510163958 12 189 19.3 24.1 0.00 0.00 0.00 36 1018.5
20260510163457 12 189 19.3 20.9 0.00 0.00 0.00 36 1018.3
20260510163002 12 181 19.3 22.5 0.00 0.00 0.00 34 1018.4
20260510162459 12 186 20.9 22.5 0.00 0.00 0.00 33 1018.4
20260510161957 12 186 20.9 24.1 0.00 0.00 0.00 35 1018.3
20260510161457 12 181 19.3 24.1 0.00 0.00 0.00 35 1018.2
20260510160958 12 181 19.3 24.1 0.00 0.00 0.00 33 1018.2
20260510160458 13 181 19.3 22.5 0.00 0.00 0.00 33 1018.1
20260510155958 13 181 19.3 22.5 0.00 0.00 0.00 33 1018.1
20260510155457 13 184 17.7 22.5 0.00 0.00 0.00 33 1018.1
20260510154959 13 186 16.1 17.7 0.00 0.00 0.00 32 1018.1
20260510154458 13 196 12.9 17.7 0.00 0.00 0.00 30 1018.1
20260510153957 13 199 9.7 14.5 0.00 0.00 0.00 30 1018.2
20260510153457 13 176 6.4 14.5 0.00 0.00 0.00 30 1018.0
20260510152959 13 150 6.4 8.0 0.00 0.00 0.00 30 1018.0
20260510152458 13 131 6.4 8.0 0.00 0.00 0.00 30 1017.8
20260510151957 13 160 6.4 6.4 0.00 0.00 0.00 30 1017.8
20260510150957 13 261 4.8 8.0 0.00 0.00 0.00 30 1017.8
20260510150458 12 261 6.4 6.4 0.00 0.00 0.00 30 1017.7
20260510145958 12 292 6.4 11.3 0.00 0.00 0.00 30 1017.7
20260510145457 12 298 8.0 11.3 0.00 0.00 0.00 30 1017.7
20260510144958 12 289 9.7 17.7 0.00 0.00 0.00 30 1017.6
20260510144458 12 294 9.7 17.7 0.00 0.00 0.00 30 1017.5
20260510143457 12 269 4.8 8.0 0.00 0.00 0.00 30 1017.2
20260510142957 12 244 6.4 8.0 0.00 0.00 0.00 30 1017.3
20260510142458 12 242 6.4 9.7 0.00 0.00 0.00 30 1017.3
20260510141958 12 262 8.0 11.3 0.00 0.00 0.00 30 1017.3
20260510141457 12 267 6.4 11.3 0.00 0.00 0.00 30 1017.3
20260510140957 12 266 4.8 6.4 0.00 0.00 0.00 32 1017.2
20260510140457 11 282 4.8 8.0 0.00 0.00 0.00 30 1017.2
20260510135959 11 307 4.8 8.0 0.00 0.00 0.00 30 1017.3
20260510135458 11 319 6.4 11.3 0.00 0.00 0.00 33 1017.3
20260510134957 11 324 6.4 11.3 0.00 0.00 0.00 34 1017.4
20260510134457 11 12 4.8 8.0 0.00 0.00 0.00 36 1017.4
20260510133958 11 342 6.4 11.3 0.00 0.00 0.00 37 1017.3
20260510132957 10 343 8.0 11.3 0.00 0.00 0.00 36 1017.1
20260510131958 10 311 6.4 9.7 0.00 0.00 0.00 38 1017.2
20260510131458 10 282 6.4 9.7 0.00 0.00 0.00 38 1017.0
20260510130458 10 98 4.8 6.4 0.00 0.00 0.00 40 1016.9
20260510125957 10 356 4.8 8.0 0.00 0.00 0.00 40 1016.8
20260510125457 10 351 6.4 11.3 0.00 0.00 0.00 41 1016.9
20260510124458 10 20 6.4 8.0 0.00 0.00 0.00 40 1016.7
20260510123457 10 28 6.4 6.4 0.00 0.00 0.00 41 1016.7
20260510122957 8 40 8.0 8.0 0.00 0.15 0.00 46 1016.8
20260510122457 8 40 8.0 8.0 0.00 0.15 0.00 46 1016.6
20260510121958 8 40 8.0 8.0 0.00 0.15 0.00 46 1016.5
20260510121458 8 40 8.0 8.0 0.00 0.15 0.00 46 1016.5
20260510120957 8 40 8.0 8.0 0.00 0.15 0.00 46 1016.5
20260510115957 8 40 8.0 8.0 0.00 0.15 0.00 46 1016.3
20260510115458 8 40 8.0 8.0 0.00 0.15 0.00 46 1016.2
20260510114957 8 40 8.0 8.0 0.00 0.15 0.00 46 1016.3
20260510114457 8 40 8.0 8.0 0.00 0.15 0.00 46 1016.1
20260510113958 8 40 8.0 8.0 0.00 0.15 0.00 46 1015.9
20260510113458 8 40 8.0 8.0 0.00 0.15 0.00 46 1015.8
20260510112458 8 40 8.0 8.0 0.00 0.15 0.00 46 1015.6
20260510111957 8 40 8.0 8.0 0.00 0.15 0.00 46 1015.6
20260510111457 8 40 8.0 8.0 0.00 0.15 0.00 46 1015.5
20260510110958 8 40 8.0 8.0 0.00 0.15 0.00 46 1015.4
20260510110457 8 40 8.0 8.0 0.00 0.15 0.00 46 1015.4
20260510105957 8 40 8.0 8.0 0.00 0.15 0.00 46 1015.3
20260510105458 8 40 8.0 8.0 0.00 0.15 0.00 46 1015.2
20260510104958 8 40 8.0 8.0 0.00 0.15 0.00 46 1015.1
20260510103957 8 40 8.0 8.0 0.00 0.15 0.00 46 1015.1
20260510103457 8 40 8.0 8.0 0.00 0.15 0.00 46 1014.8
20260510102957 8 40 8.0 8.0 0.00 0.15 0.00 46 1014.9
20260510102457 8 40 8.0 8.0 0.00 0.15 0.00 46 1014.6
20260510101957 8 40 8.0 8.0 0.00 0.15 0.00 46 1014.7
20260510101458 8 40 8.0 8.0 0.00 0.15 0.00 46 1014.6
20260510100957 8 40 8.0 8.0 0.00 0.15 0.00 46 1014.5
20260510095958 8 40 8.0 8.0 0.00 0.15 0.00 46 1014.4
20260510095458 8 40 8.0 8.0 0.00 0.15 0.00 46 1014.3
20260510094958 8 40 8.0 8.0 0.00 0.15 0.00 46 1014.2
20260510093457 8 40 8.0 8.0 0.00 0.15 0.00 46 1014.1
20260510092957 8 40 8.0 8.0 0.00 0.15 0.00 46 1014.0
20260510092457 8 40 8.0 8.0 0.00 0.15 0.00 46 1014.0
20260510091957 8 40 8.0 8.0 0.00 0.15 0.00 46 1013.8
20260510091457 8 40 8.0 8.0 0.00 0.15 0.00 46 1013.7
20260510090957 8 40 8.0 8.0 0.00 0.15 0.00 46 1013.7
20260510090457 8 33 8.0 8.0 0.00 0.15 0.00 46 1013.7
20260510085957 8 19 6.4 11.3 0.00 0.15 0.00 46 1013.7
20260510085457 7 31 6.4 11.3 0.00 0.15 0.00 45 1013.3
20260510084458 7 39 4.8 8.0 0.00 0.15 0.00 45 1013.2
20260510083957 7 41 8.0 9.7 0.00 0.15 0.00 45 1013.0
20260510083457 7 37 8.0 9.7 0.00 0.15 0.00 44 1012.9
20260510082956 7 26 6.4 9.7 0.00 0.15 0.00 44 1012.8
20260510082457 7 36 4.8 6.4 0.00 0.15 0.00 45 1012.8
20260510081957 8 35 4.8 8.0 0.00 0.15 0.00 46 1012.6
20260510081457 8 36 4.8 8.0 0.00 0.15 0.00 45 1012.7
20260510080958 8 74 6.4 8.0 0.00 0.15 0.00 45 1012.4
20260510075957 8 24 8.0 12.9 0.00 0.15 0.00 46 1012.3
20260510075456 8 7 8.0 12.9 0.00 0.15 0.00 47 1012.2
20260510074457 8 44 6.4 12.9 0.00 0.15 0.00 50 1012.0
20260510073957 8 64 3.2 11.3 0.00 0.15 0.00 52 1011.9
20260510073457 8 59 3.2 6.4 0.00 0.15 0.00 52 1011.9
20260510072956 9 24 6.4 9.7 0.00 0.15 0.00 53 1011.7
20260510072457 8 6 6.4 9.7 0.00 0.15 0.00 54 1011.5
20260510071957 8 355 4.8 9.7 0.00 0.15 0.00 55 1011.5
20260510071457 8 349 3.2 6.4 0.00 0.15 0.00 57 1011.4
20260510070957 8 355 3.2 3.2 0.00 0.15 0.00 57 1011.3
20260510070458 8 5 3.2 3.2 0.00 0.15 0.00 56 1011.2
20260510065957 8 7 1.6 3.2 0.00 0.15 0.00 56 1010.9
20260510065457 9 350 0.0 3.2 0.00 0.15 0.00 54 1010.8
20260510064956 9 314 1.6 6.4 0.00 0.15 0.00 53 1010.9
20260510064456 9 314 1.6 6.4 0.00 0.15 0.00 53 1010.8
20260510063957 10 303 1.6 3.2 0.00 0.15 0.00 53 1010.8
20260510063457 10 357 3.2 6.4 0.00 0.15 0.00 53 1010.7
20260510062957 10 4 4.8 8.0 0.00 0.15 0.00 53 1010.5
20260510062456 10 1 4.8 8.0 0.00 0.15 0.00 53 1010.3
20260510061457 10 38 3.2 6.4 0.00 0.15 0.00 52 1010.3
20260510060956 10 107 3.2 3.2 0.00 0.15 0.00 51 1010.5
20260510060456 10 70 3.2 6.4 0.00 0.15 0.00 51 1010.4
20260510055957 10 10 4.8 6.4 0.00 0.15 0.00 51 1010.5
20260510054958 10 30 4.8 6.4 0.00 0.15 0.00 51 1010.3
20260510054458 10 57 4.8 6.4 0.00 0.15 0.00 51 1010.3
20260510052957 11 46 4.8 11.3 0.00 0.15 0.00 50 1010.0
20260510052457 11 61 6.4 11.3 0.00 0.15 0.00 49 1010.0
20260510051957 11 23 6.4 11.3 0.00 0.15 0.00 49 1009.8
20260510051457 11 2 8.0 11.3 0.00 0.15 0.00 49 1009.7
20260510050956 11 286 8.0 11.3 0.00 0.15 0.00 49 1009.7
20260510050457 11 316 9.7 14.5 0.00 0.15 0.00 48 1009.6
20260510045958 11 11 8.0 17.7 0.00 0.15 0.00 48 1009.4
20260510044956 11 29 11.3 17.7 0.00 0.15 0.00 48 1009.3
20260510043458 12 48 9.7 12.9 0.00 0.15 0.00 47 1009.2
20260510042957 12 49 11.3 17.7 0.00 0.15 0.00 46 1009.1
20260510042456 12 45 12.9 17.7 0.00 0.15 0.00 46 1009.0
20260510041957 12 32 12.9 17.7 0.00 0.15 0.00 46 1009.0
20260510041457 12 4 14.5 27.4 0.00 0.15 0.00 45 1008.7
20260510040956 12 2 22.5 27.4 0.00 0.15 0.00 45 1008.7
20260510035958 13 13 17.7 27.4 0.00 0.15 0.00 42 1008.5
20260510035458 15 21 16.1 19.3 0.00 0.15 0.15 42 1008.3
20260510034957 14 10 16.1 22.5 0.03 0.15 0.15 41 1008.3
20260510034456 14 18 17.7 22.5 0.03 0.15 0.15 40 1008.2
20260510033957 14 14 16.1 27.4 0.03 0.15 0.15 41 1008.0
20260510033457 14 344 9.7 27.4 0.03 0.15 0.15 48 1007.8
20260510031957 14 352 3.2 4.8 0.03 0.15 0.15 63 1007.6
20260510031457 15 358 4.8 6.4 0.03 0.15 0.15 63 1007.4
20260510030956 15 355 6.4 6.4 0.03 0.15 0.15 62 1007.5
20260510030457 15 337 6.4 8.0 0.03 0.15 0.15 62 1007.4
20260510025956 15 274 8.0 11.3 0.03 0.15 0.15 62 1007.3
20260510025457 15 274 8.0 11.3 0.00 0.13 0.13 61 1007.1
20260510024956 15 293 8.0 12.9 0.00 0.13 0.13 60 1006.9
20260510024456 15 283 8.0 12.9 0.00 0.13 0.13 61 1006.9
20260510023957 15 260 9.7 12.9 0.00 0.13 0.13 62 1006.6
20260510022956 15 244 8.0 12.9 0.00 0.13 0.13 63 1006.4
20260510022457 15 279 6.4 11.3 0.00 0.13 0.13 62 1006.3
20260510021956 15 297 4.8 11.3 0.00 0.13 0.13 61 1006.1
20260510020956 15 309 6.4 6.4 0.00 0.13 0.13 63 1005.9
20260510020456 15 284 6.4 6.4 0.00 0.13 0.13 64 1006.0
20260510015956 15 249 8.0 11.3 0.00 0.13 0.13 64 1005.8
20260510015457 15 256 9.7 11.3 0.00 0.13 0.13 64 1006.0
20260510014957 15 272 9.7 12.9 0.00 0.13 0.13 64 1005.9
20260510014457 15 246 12.9 17.7 0.00 0.13 0.13 64 1005.8
20260510013957 15 224 14.5 17.7 0.00 0.13 0.13 64 1005.7
20260510013456 15 224 14.5 17.7 0.00 0.13 0.13 63 1005.7
20260510012956 15 230 12.9 17.7 0.00 0.13 0.13 62 1005.6
20260510012457 15 227 16.1 22.5 0.00 0.13 0.13 61 1005.5
20260510011456 15 229 19.3 22.5 0.00 0.13 0.13 61 1005.7
20260510010956 15 226 19.3 20.9 0.00 0.13 0.13 60 1005.4
20260510010456 15 233 19.3 20.9 0.00 0.13 0.13 62 1005.4
20260510005958 15 248 16.1 20.9 0.00 0.13 0.13 62 1005.3
20260510004456 15 263 19.3 22.5 0.00 0.13 0.13 60 1005.0
20260510003956 15 249 16.1 22.5 0.00 0.13 0.13 60 1005.1
20260510003457 15 246 14.5 20.9 0.00 0.13 0.13 61 1005.0
20260510002956 15 245 16.1 20.9 0.00 0.13 0.13 60 1005.2
20260510002456 15 223 16.1 17.7 0.00 0.13 0.13 61 1005.1
20260510001957 15 236 17.7 20.9 0.00 0.13 0.13 62 1005.1
20260510001457 15 241 17.7 20.9 0.00 0.13 0.13 62 1004.9
20260510000456 15 244 16.1 19.3 0.00 0.13 0.13 62 1004.8
20260509235457 15 227 25.7 32.2 0.00 0.13 0.13 61 1004.7
20260509234457 15 247 20.9 25.7 0.00 0.13 0.13 60 1004.6
20260509233957 15 238 19.3 25.7 0.00 0.13 0.13 61 1004.6
20260509233457 15 243 22.5 27.4 0.00 0.13 0.13 61 1004.6
20260509232456 16 300 22.5 27.4 0.00 0.13 0.13 59 1004.3
20260509231957 16 279 20.9 24.1 0.00 0.13 0.13 60 1004.3
20260509231457 16 235 22.5 27.4 0.00 0.13 0.13 60 1004.2
20260509230957 16 230 24.1 27.4 0.00 0.13 0.13 59 1004.2
20260509230457 16 234 22.5 27.4 0.00 0.13 0.13 59 1004.1
20260509225956 16 230 20.9 27.4 0.00 0.13 0.13 60 1004.2
20260509225457 16 222 22.5 27.4 0.00 0.13 0.13 60 1004.0
20260509224957 16 225 22.5 27.4 0.00 0.13 0.13 59 1004.1
20260509224456 16 227 20.9 24.1 0.00 0.13 0.13 59 1003.9
20260509223956 16 227 20.9 25.7 0.00 0.13 0.13 58 1004.0
20260509223456 16 225 22.5 25.7 0.00 0.13 0.13 58 1004.0
20260509222957 16 225 24.1 30.6 0.00 0.13 0.13 57 1004.2
20260509222457 16 225 27.4 30.6 0.00 0.13 0.13 55 1004.0
20260509221957 17 225 27.4 27.4 0.00 0.13 0.13 54 1003.9
20260509221457 17 230 25.7 27.4 0.00 0.13 0.13 54 1003.7
20260509220956 17 230 24.1 25.7 0.03 0.13 0.13 55 1003.7
20260509215956 17 247 24.1 33.8 0.05 0.13 0.13 53 1003.7
20260509215456 17 257 24.1 29.0 0.05 0.13 0.13 51 1003.5
20260509214457 17 226 20.9 29.0 0.05 0.13 0.13 55 1003.5
20260509213956 16 256 17.7 27.4 0.05 0.13 0.13 58 1003.5
20260509213456 16 286 17.7 27.4 0.05 0.13 0.13 57 1003.3
20260509212956 15 269 17.7 24.1 0.05 0.13 0.13 58 1003.6
20260509211459 15 311 25.7 35.4 0.05 0.13 0.13 57 1003.9
20260509210956 16 255 25.7 35.4 0.03 0.10 0.10 54 1004.2
20260509210456 16 222 24.1 29.0 0.05 0.05 0.05 54 1004.2
20260509205956 16 257 27.4 37.0 0.05 0.05 0.05 54 1003.5
20260509205457 16 236 35.4 45.1 0.05 0.05 0.05 56 1003.1
20260509204456 16 227 35.4 56.3 0.05 0.05 0.05 58 1002.7
20260509203956 16 223 29.0 32.2 0.05 0.05 0.05 63 1002.4
20260509203457 16 218 29.0 32.2 0.05 0.05 0.05 64 1002.7
20260509202957 16 233 22.5 30.6 0.05 0.05 0.05 67 1003.0
20260509202456 16 278 16.1 29.0 0.05 0.05 0.05 73 1002.8
20260509201957 16 268 12.9 22.5 0.05 0.05 0.05 74 1002.9
20260509200956 15 192 32.2 33.8 0.03 0.03 0.03 67 1002.9
20260509200456 15 196 33.8 35.4 0.00 0.00 0.00 65 1002.9
20260509195457 16 202 35.4 37.0 0.00 0.00 0.00 64 1002.7
20260509194956 16 200 33.8 37.0 0.00 0.00 0.00 63 1002.9
20260509194456 16 205 33.8 33.8 0.00 0.00 0.00 62 1002.8
20260509193956 16 199 33.8 33.8 0.00 0.00 0.00 60 1003.0
20260509193456 17 192 30.6 33.8 0.00 0.00 0.00 60 1003.0
20260509192956 17 194 25.7 29.0 0.00 0.00 0.00 61 1003.1
20260509192456 16 200 25.7 27.4 0.00 0.00 0.00 62 1003.2
20260509191955 16 205 27.4 29.0 0.00 0.00 0.00 61 1003.4
20260509191456 17 210 27.4 29.0 0.00 0.00 0.00 62 1003.5
20260509190957 16 207 27.4 29.0 0.00 0.00 0.00 62 1003.5